sat.trackr.live / text

‹ back to catalog

GLOBAL-34

NORAD 68098 · 2026-043A

PAYLOAD ACTIVE UNKNOWN

§ Identity

Operator
Country
US
Launch date
2026-03-05
Launch site
RLLB
Launch vehicle
Mass (kg)
RCS (m²)

External: N2YO · Heavens-Above · Gunter

§ Orbital elements

Epoch: 2026-09-19T15:55:50.314656Z

Period
93.86 min
Inclination
42.0215°
Eccentricity
0.0003383
Mean motion
15.34222340 rev/d
Perigee alt
460.9 km
Apogee alt
465.5 km
Semi-major
6,841.4 km
B*
2.3125e-4
RAAN
33.8383°
Arg perigee
251.6736°
Mean anomaly
108.3735°
Rev number
3,033

§ Raw data

GLOBAL-341 68098U 26043A   26262.66377679  .00007580  00000+0  23125-3 0  99902 68098  42.0215  33.8383 0003383 251.6736 108.3735 15.34222340 30334

JSON: /api/v1/satellites/68098 · /tle

For live sub-satellite position, see the globe view (requires WebGL).

§ Visibility from observer

Set your observer location to see the next 7 days of passes ≥ 10°. The values pass through the URL so the page stays shareable.

No JS? Fill the form by hand. The geolocation button needs JavaScript.